Imperial, NE

8:50 PM MDT on August 20, 2017 (GMT -0600)
Imperial Municipal

Weather History for KIML - February, 2012

Change the Weather History Date:

Sunday, February 26, 2012

  Actual Average Record
Temperature  
Mean Temperature 32 °F 34 °F  
Max Temperature 46 °F 48 °F 75 °F (1995)
Min Temperature 18 °F 21 °F -14 °F (1960)
Degree Days  
Heating Degree Days 33 31  
Month to date heating degree days 910 877  
Cooling Degree Days 0 0  
Month to date cooling degree days 0 0  
Year to date cooling degree days 0 0  
Moisture  
Dew Point 5 °F    
Average Humidity 44    
Maximum Humidity 71    
Minimum Humidity 16    
Precipitation  
Precipitation 0.00 in 0.02 in 0.60 in (1900)
Sea Level Pressure  
Sea Level Pressure 30.02 in    
Wind  
Wind Speed 19 mph (NW)    
Max Wind Speed 33 mph    
Max Gust Speed 44 mph    
Visibility 10 miles    
Events      
T = Trace of Precipitation, MM = Missing Value Source: NWS Daily Summary

Daily Weather History Graph

Daily Weather History Graph

Search for Another Location

Airport or City:

Trip Planner

Search our weather history database for the weather conditions in past years. The results will help you decide how hot, cold, wet, or windy it might be!

Date:

Astronomy

Feb. 26, 2012 Rise Set
Actual Time 6:25 AM MST 5:34 PM MST
Civil Twilight 5:57 AM MST 6:01 PM MST
Nautical Twilight 5:26 AM MST 6:33 PM MST
Astronomical Twilight 4:54 AM MST 7:04 PM MST
Moon 8:20 AM MST (2/26) 10:35 PM MST (2/26)
Length of Visible Light 12h 03m
Length of Day
11h 08m
Waxing Crescent, 21% of the Moon is Illuminated
Feb 26
Waxing Crescent
Feb 29
First Quarter
Mar 8
Full
Mar 14
Last Quarter
Mar 22
New

Hourly Weather History & Observations

Time (MST) Temp. Windchill Dew Point Humidity Pressure Visibility Wind Dir Wind Speed Gust Speed Precip Events Conditions
12:31 AM 41.0 °F 31.4 °F -0.4 °F 18% 29.67 in 10.0 mi NW 21.9 mph 34.5 mph N/A   Scattered Clouds
12:53 AM 41.0 °F 30.7 °F -2.0 °F 16% 29.69 in 10.0 mi WNW 25.3 mph 35.7 mph N/A   Clear
1:53 AM 37.9 °F 27.1 °F -2.9 °F 18% 29.72 in 10.0 mi NW 23.0 mph 29.9 mph N/A   Clear
2:53 AM 35.6 °F 24.5 °F -0.4 °F 22% 29.74 in 10.0 mi NW 20.7 mph - N/A   Clear
3:53 AM 35.1 °F 25.5 °F 1.0 °F 24% 29.79 in 10.0 mi NW 15.0 mph 25.3 mph N/A   Clear
4:53 AM 33.8 °F 23.9 °F 3.2 °F 28% 29.81 in 10.0 mi NW 15.0 mph 21.9 mph N/A   Unknown
6:53 AM 34.0 °F 21.8 °F 1.0 °F 25% 29.90 in 10.0 mi NW 23.0 mph 31.1 mph N/A   Clear
7:53 AM 36.0 °F 23.0 °F 1.0 °F 23% 29.94 in 10.0 mi NW 29.9 mph 40.3 mph N/A   Clear
8:53 AM 37.9 °F 26.1 °F 1.9 °F 22% 29.99 in 10.0 mi NW 27.6 mph 36.8 mph N/A   Clear
9:53 AM 41.0 °F 30.0 °F 3.0 °F 21% 30.00 in 10.0 mi WNW 28.8 mph 39.1 mph N/A   Clear
10:53 AM 42.1 °F 31.3 °F 3.0 °F 20% 30.02 in 10.0 mi NW 29.9 mph 41.4 mph N/A   Clear
11:53 AM 44.1 °F 33.3 °F 3.0 °F 18% 30.01 in 10.0 mi NW 34.5 mph 42.6 mph N/A   Clear
12:53 PM 45.0 °F 36.2 °F 3.9 °F 18% 30.01 in 10.0 mi WNW 24.2 mph 39.1 mph N/A   Clear
1:53 PM 46.0 °F 37.2 °F 6.1 °F 20% 30.02 in 10.0 mi NW 26.5 mph 36.8 mph N/A   Clear
2:53 PM 46.0 °F 37.6 °F 5.0 °F 19% 30.04 in 10.0 mi NW 24.2 mph 34.5 mph N/A   Clear
3:53 PM 44.1 °F 35.4 °F 6.1 °F 21% 30.08 in 10.0 mi NW 21.9 mph 32.2 mph N/A   Clear
4:53 PM 42.1 °F 33.6 °F 7.0 °F 24% 30.12 in 10.0 mi NW 18.4 mph 28.8 mph N/A   Clear
5:53 PM 37.0 °F 29.3 °F 12.0 °F 36% 30.17 in 10.0 mi NW 11.5 mph - N/A   Clear
6:53 PM 35.1 °F 25.5 °F 10.9 °F 37% 30.20 in 10.0 mi NW 15.0 mph - N/A   Clear
7:53 PM 33.1 °F 25.5 °F 10.9 °F 40% 30.24 in 10.0 mi NW 9.2 mph - N/A   Clear
8:53 PM 27.0 °F 19.5 °F 12.9 °F 56% 30.27 in 10.0 mi NNW 6.9 mph - N/A   Clear
9:53 PM 23.0 °F 17.0 °F 14.0 °F 68% 30.31 in 10.0 mi North 4.6 mph - N/A   Clear
10:53 PM 21.9 °F - 14.0 °F 72% 30.34 in 10.0 mi Calm Calm - N/A   Clear
11:53 PM 18.0 °F 12.7 °F 14.0 °F 84% 30.36 in 10.0 mi NNW 3.5 mph - N/A   Clear